Torna al catalogo

SL-16 DEB

AttivoLEO
NORAD 25409·DEBRIS·🇷🇺 Russia

Lanciato Jul 28, 1998 da Baikonur Cosmodrome

Loading…

Prossimi Passaggi (prossime 24 ore)

TLE

AggiornatoSource: Space-Track

Epoca: Sep 14, 2026, 03:57 UTC

1 25409U 98045C   26257.16521591  .00000092  00000-0  12223-3 0  9992
2 25409  71.0794 209.1051 0190128  99.4893 275.9778 13.75232499411120

Traccia SL-16 DEB in tempo reale con AllMySat

Download on the App Store